Regional Weather Roundup
Issued by NWS

Current Version | Previous Version | Text Only | Print | Product List | Glossary Off
Versions: 1 2 3 4 5 6 7 8 9 10 11 12 13 14 15 16 17 18 19 20 21 22 23 24 25 26 27 28 29 30 31 32 33 34 35 36 37 38 39 40 41 42

000
ASUS42 KTBW 040318
RWRFL
FLORIDA REGIONAL WEATHER ROUNDUP
NATIONAL WEATHER SERVICE TAMPA BAY RUSKIN FL
1100 PM EDT FRI JUL 03 2020

NOTE: "FAIR" INDICATES FEW OR NO CLOUDS BELOW 12,000 FEET WITH NO
SIGNIFICANT WEATHER AND/OR OBSTRUCTIONS TO VISIBILITY.

FLZ001>010-012>015-112-114-115-040400-
PANHANDLE FLORIDA

CITY           SKY/WX    TMP DP  RH WIND       PRES   REMARKS
PENSACOLA      CLOUDY    78  72  81 CALM      29.90F
PENSACOLA NAS  CLOUDY    77  71  82 CALM      29.90
MILTON NAS     CLOUDY    73  71  93 CALM      29.92R
CRESTVIEW      CLOUDY    77  74  90 E5        29.94R
DUKE FIELD     FAIR      77  74  90 E6        29.92R
VALPARAISO     CLOUDY    80  73  77 NE5       29.91R
MARY ESTHER    CLOUDY    79  73  80 N3        29.89S
TRI COUNTY     LGT RAIN  74  72  93 VRB5      29.94F
PANAMA CITY    FAIR      77  70  79 NE3       29.93R
TYNDALL AFB    MOCLDY    80  74  81 E6        29.92R
APALACHICOLA   MOCLDY    79  77  94 CALM      29.90F

STATION/POSITION SKY/WX   TEMP    WIND        PRES    WAVE   SWELL
                          AIR SEA DIR/SP/G            HT/PER HT/PER
                          (F)     (DEG/KT/KT) (MB)    (FT/S) (FT/S)
30.1N   87.6W              84     300/  8/ 10 1012.9
29.2N   88.2W              83     300/  8/ 12 1013.6R   2/ 4   2/ 4
28.8N   86.0W                 85  270/ 10/ 14 1013.1R   2/ 4
PANAMA CITY BEAC           82 82  260/  1/  2   N/A
TOWER C                    82     250/  4/  4 1013.1F
28.5N   84.5W                     230/  8/ 10 1013.9R   2/ 5   2/ 5

$$
FLZ011-016>038-118-127-128-134-139-239-040400-
NORTH FLORIDA

CITY           SKY/WX    TMP DP  RH WIND       PRES   REMARKS
MARIANNA       CLOUDY    74  72  93 NW5       29.90S
TALLAHASSEE    MOCLDY    75  70  84 E6        29.91R
LIVE OAK       PTCLDY    73  73 100 CALM      29.92S
CROSS CITY     CLOUDY    76  73  92 SE3       29.93R
LAKE CITY      FAIR      70  70 100 CALM      29.94R
GAINESVILLE    MOCLDY    74  70  87 CALM      29.95S
WILLISTON      MOCLDY   N/A N/A N/A CALM      29.94R
PALATKA        MOCLDY    70  68  94 SW5       29.94R
MAYPORT NAS    LGT RAIN  78  75  90 NW5       29.91S
JACKSONVILLE   MOCLDY    74  73  97 N3        29.91S
JAX NAS        MOCLDY    77  74  90 W6        29.93R
JAX CECIL      MOCLDY    73  72  94 CALM      29.92S FOG
FERNANDINA BEA FAIR      75 N/A N/A W6        29.92R
ST AUGUSTINE   MOCLDY    76  75  97 SW3       29.94R
PALM COAST     MOCLDY    76  74  94 NW7       29.93R

STATION/POSITION SKY/WX   TEMP    WIND        PRES    WAVE   SWELL
                          AIR SEA DIR/SP/G            HT/PER HT/PER
                          (F)     (DEG/KT/KT) (MB)    (FT/S) (FT/S)
SHELL POINT      NOT AVBL
KEATON BEACH               77      60/  6/  7 1013.4R
CEDAR KEY                  83     270/  3/  5 1013.4R
FERNANDINA                 83 82  230/  3/  5   N/A
30.7N   81.3W                 83                N/A     1/10
MAYPORT                    78 83  250/  4/  5   N/A
31.4N   80.9W              82 83  120/  6/  8 1012.8R   1/ 4   2/ 9
ST AUGUSTINE               77 84  250/  4/  4 1013.7R

$$
FLZ040-043>046-052-053-057-058-063-144-040400-
INTERIOR CENTRAL FLORIDA

CITY           SKY/WX    TMP DP  RH WIND       PRES   REMARKS
OCALA          MOCLDY    75  73  93 CALM      29.95R
LEESBURG       MOCLDY    74  74 100 CALM      29.95R
SANFORD        MOCLDY    78  72  81 W7        29.93R
ORLANDO EXEC   MOCLDY    81  71  71 NW5       29.94R
ORLANDO INTL   CLOUDY    80  73  79 W3        29.94R
KISSIMMEE      MOCLDY    80  75  84 CALM      29.96R
WINTER HAVEN   MOCLDY    82  72  71 NW6       29.96R
LAKELAND       MOCLDY    79  72  78 CALM      29.96R
BARTOW         FAIR      82  73  74 W6        29.94R
SEBRING        FAIR      82  73  75 W6        29.95R
OKEECHOBEE     PTCLDY    79  72  78 CALM      29.93R

$$
FLZ041-047-054-059-064-141-147-040400-
EAST CENTRAL FLORIDA

CITY           SKY/WX    TMP DP  RH WIND       PRES   REMARKS
DAYTONA BEACH  CLOUDY    76  76 100 NW5       29.92R
DELAND         CLOUDY    76  74  96 W3        29.94R
JFK SPACE CTR  CLOUDY    74  72  92 CALM      29.91S
CAPE CANAVERAL CLOUDY    77  74  91 SW7       29.90F
PATRICK AFB    CLOUDY    82  72  72 W3        29.92R
MELBOURNE      MOCLDY    77  76  96 W6        29.93R
VERO BEACH     MOCLDY    79  76  90 S3        29.92R
FT PIERCE      PTCLDY    80  77  90 CALM      29.92R
STUART         MOCLDY    86  73  66 SW5       29.95R

STATION/POSITION SKY/WX   TEMP    WIND        PRES    WAVE   SWELL
                          AIR SEA DIR/SP/G            HT/PER HT/PER
                          (F)     (DEG/KT/KT) (MB)    (FT/S) (FT/S)
28.5N   80.2W              80 83  250/ 12/ 21 1013.2R   1/ 9   2/ 9
28.9N   78.5W              83 84  240/  4/  6 1014.0R   2/ 9   2/ 9
TRIDENT PIER               79 85  200/  3/  3   N/A
28.4N   80.5W                 83                N/A     1/10
27.5N   80.2W                 83                N/A     1/ 3

$$
FLZ050-056-061-142-242-148-248-149-249-151-251-155-255-
160-260-040400-
WEST CENTRAL FLORIDA

CITY           SKY/WX    TMP DP  RH WIND       PRES   REMARKS
CRYSTAL RIVER  MOCLDY    77  72  83 CALM      29.93S
INVERNESS      MOCLDY    79  79 100 CALM      29.95R
BROOKSVILLE    LGT RAIN  78  72  81 W9        29.96R
CLEARWATER AIR FAIR      82  72  69 W5        29.94S
ST PETE CLEARW MOCLDY    85  75  72 W7        29.94R
TAMPA INTL     MOCLDY    85  71  63 W8        29.95R
TAMPA EXEC     MOCLDY    79  75  89 CALM      29.95R
PLANT CITY     MOCLDY    82  77  83 W5        29.97R
MACDILL AFB    MOCLDY    83  74  72 W5        29.94R
PETER O KNIGHT CLOUDY    86  79  79 W5        29.95R HX  99
ST PETERSBURG  MOCLDY    85  76  74 W8        29.92S
SARASOTA       PTCLDY    86  74  67 W8        29.92S
VENICE         FAIR      86  75  70 W7G14     29.95S HX  95

STATION/POSITION SKY/WX   TEMP    WIND        PRES    WAVE   SWELL
                          AIR SEA DIR/SP/G            HT/PER HT/PER
                          (F)     (DEG/KT/KT) (MB)    (FT/S) (FT/S)
27.3N   84.3W                 86                N/A     2/ 3
CLEARWATER BEACH           85 91  270/ 10/ 12   N/A
MIDDLE TAMPA BAY           85     300/ 10/ 13   N/A
VENICE                     85 89  280/ 10/ 11 1014.0R

$$
FLZ066-069-070-075>078-162-262-165-265-040400-
SOUTHWEST FLORIDA AND KEYS

CITY           SKY/WX    TMP DP  RH WIND       PRES   REMARKS
PUNTA GORDA    CLEAR     83  74  74 NW6       29.96R
FT MYERS       CLEAR     84  74  71 NW6       29.94R
SOUTHWEST INTL CLEAR     84  74  71 CALM      29.95R
NAPLES         CLEAR     84  76  76 W5        29.95R
MARCO ISLAND   MOCLDY    83  76  79 W3        29.96R
IMMOKALEE      FAIR      81  75  83 CALM      29.95R
MARATHON       CLEAR     85  75  72 S3        29.96R
KEY WEST NAS   PTCLDY    86  76  71 NE6       29.97R HX  96
KEY WEST INTL  MOCLDY    88  76  67 NW3       29.97S HX  99

STATION/POSITION SKY/WX   TEMP    WIND        PRES    WAVE   SWELL
                          AIR SEA DIR/SP/G            HT/PER HT/PER
                          (F)     (DEG/KT/KT) (MB)    (FT/S) (FT/S)
NAPLES                     87 92  290/  7/  9   N/A
26.0N   85.6W                     230/  2/  4 1015.4
DRY TORTUGAS     NOT AVBL
SAND KEY                   85     320/  5/  7 1015.2R
SOMBRERO KEY               85     180/  3/  4 1015.2R
LONG KEY                   86     190/  2/  3 1015.1

$$
FLZ067-068-071>074-168-172>174-040400-
SOUTHEAST FLORIDA

CITY           SKY/WX    TMP DP  RH WIND       PRES   REMARKS
W PALM BEACH   PTCLDY    83  76  79 S5        29.95R
BOCA RATON     PTCLDY    84  75  74 SW5       29.95R
FT LAUDER-EXEC PTCLDY    86  75  69 S5        29.95R HX  95
FT LAUDERDALE  PTCLDY    87  76  69 SW5       29.94R HX  97
POMPANO BEACH  PTCLDY    84  75  74 S6        29.95R
PEMBROKE PINES CLEAR    N/A N/A N/A S6        29.97R
OPA LOCKA      CLEAR     84  74  71 SW8       29.96R
MIAMI          PTCLDY    86  75  69 SW7       29.96R HX  95
WEST KENDALL   PTCLDY    83  77  82 SW6       29.96R
HOMESTEAD      PTCLDY    80  76  88 SW5       29.95R

STATION/POSITION SKY/WX   TEMP    WIND        PRES    WAVE   SWELL
                          AIR SEA DIR/SP/G            HT/PER HT/PER
                          (F)     (DEG/KT/KT) (MB)    (FT/S) (FT/S)
VIRGINIA KEY               87 89  220/  9/ 11   N/A
LAKE WORTH                 86 86  190/  5/  6   N/A
FOWEY ROCKS                85 85  190/ 12/ 13 1014.6R

$$





USA.gov is the U.S. government's official web portal to all federal, state and local government web resources and services.